Location: Battersea Observatory
(44.4318°N, 76.3841°W)
Time: 03:58:35
(UTC-05:00)

SR - All Passes

Search period start: 28 January 2022 00:00
Search period end: 07 February 2022 00:00
Orbit: 582 x 872 km, 66.7° (Epoch: 27 January)

Date Brightness Start Highest point End Pass type
(mag) Time Alt. Az. Time Alt. Az. Time Alt. Az.
28 Jan - 09:20:00 10° S 09:23:58 39° ESE 09:27:56 10° NE daylight
28 Jan - 11:02:35 10° WSW 11:06:05 24° NW 11:09:37 10° N daylight
28 Jan - 16:18:40 10° NNE 16:19:15 10° NNE 16:19:51 10° NE daylight
28 Jan - 17:57:47 10° NNW 18:02:20 48° NE 18:07:15 10° SE visible
28 Jan - 19:40:18 10° WNW 19:44:08 24° WSW 19:48:13 10° SSW visible
29 Jan - 08:31:25 10° SSE 08:34:20 18° ESE 08:37:15 10° ENE daylight
29 Jan - 10:11:51 10° SW 10:15:57 46° NW 10:20:07 10° NNE daylight
29 Jan - 17:08:15 10° NNW 17:12:14 27° NE 17:16:28 10° ESE daylight
29 Jan - 18:49:50 10° NW 18:54:25 47° WSW 18:59:23 10° S visible
30 Jan - 09:21:46 10° SSW 09:26:01 81° ESE 09:30:18 10° NNE daylight
30 Jan - 11:06:08 10° WNW 11:08:37 15° NW 11:11:08 10° N daylight
30 Jan - 16:19:02 10° N 16:21:57 16° NE 16:24:58 10° ENE daylight
30 Jan - 17:59:49 10° NNW 18:04:34 87° NE 18:09:46 10° SSE visible
30 Jan - 19:43:55 10° W 19:46:02 13° WSW 19:48:14 10° SW visible
31 Jan - 08:32:21 10° S 08:36:15 36° ESE 08:40:09 10° NE daylight
31 Jan - 10:14:43 10° WSW 10:18:19 26° NW 10:21:57 10° NNE daylight
31 Jan - 17:10:04 10° NNW 17:14:36 45° NE 17:19:31 10° SE daylight
31 Jan - 18:52:27 10° NW 18:56:27 26° WSW 19:00:42 10° SSW visible
01 Feb - 07:43:56 10° SSE 07:46:38 17° ESE 07:49:21 10° ENE daylight
01 Feb - 09:24:04 10° SW 09:28:12 51° NW 09:32:24 10° NNE daylight
01 Feb - 16:20:33 10° N 16:24:29 25° NE 16:28:39 10° ESE daylight
01 Feb - 18:02:03 10° NW 18:06:43 51° WSW 18:11:45 10° SSE visible
02 Feb - 08:34:03 10° SSW 08:38:17 75° ESE 08:42:33 10° NE daylight
02 Feb - 10:18:10 10° WNW 10:20:49 16° NW 10:23:31 10° N daylight
02 Feb - 15:31:23 10° N 15:34:10 15° NE 15:37:04 10° ENE daylight
02 Feb - 17:12:04 10° NNW 17:16:51 81° ENE 17:22:04 10° SE daylight
02 Feb - 18:55:50 10° WNW 18:58:22 14° WSW 19:00:59 10° SW visible
03 Feb - 07:44:44 10° S 07:48:32 33° ESE 07:52:22 10° NE daylight
03 Feb - 09:26:52 10° WSW 09:30:32 28° NW 09:34:17 10° NNE daylight
03 Feb - 16:22:21 10° NNW 16:26:52 42° NE 16:31:44 10° ESE daylight
03 Feb - 18:04:37 10° NW 18:08:45 28° WSW 18:13:10 10° S visible
04 Feb - 06:56:29 10° SE 06:58:56 15° ESE 07:01:25 10° ENE daylight
04 Feb - 08:36:17 10° SW 08:40:27 55° NW 08:44:41 10° NNE daylight
04 Feb - 10:23:13 10° NW 10:23:30 10° NNW 10:23:47 10° NNW daylight
04 Feb - 15:32:51 10° N 15:36:43 24° NE 15:40:48 10° E daylight
04 Feb - 17:14:17 10° NW 17:19:00 56° WSW 17:24:07 10° SSE daylight
05 Feb - 07:46:21 10° SSW 07:50:33 68° ESE 07:54:48 10° NE daylight
05 Feb - 09:30:13 10° W 09:33:02 17° NW 09:35:54 10° N daylight
05 Feb - 14:43:44 10° N 14:46:23 15° NE 14:49:07 10° ENE daylight
05 Feb - 16:24:20 10° NNW 16:29:07 75° ENE 16:34:21 10° SE daylight
05 Feb - 18:07:50 10° WNW 18:10:41 15° WSW 18:13:39 10° SW visible
06 Feb - 06:57:06 10° S 07:00:49 30° ESE 07:04:34 10° NE daylight
06 Feb - 08:39:01 10° WSW 08:42:45 30° NW 08:46:35 10° NNE daylight
06 Feb - 15:34:37 10° NNW 15:39:07 40° NE 15:43:58 10° ESE daylight
06 Feb - 17:16:47 10° NW 17:21:03 30° WSW 17:25:37 10° S daylight
